TimeCDT,TemperatureF,Dew PointF,Humidity,Sea Level PressureIn,VisibilityMPH,Wind Direction,Wind SpeedMPH,Gust SpeedMPH,PrecipitationIn,Events,Conditions,WindDirDegrees,DateUTC
12:15 AM,46.4,41.0,81,30.09,10.0,Calm,Calm,-,N/A,,Clear,0,2013-07-03 05:15:00
12:35 AM,46.4,42.8,87,30.09,10.0,Calm,Calm,-,N/A,,Clear,0,2013-07-03 05:35:00
12:55 AM,44.6,41.0,87,30.08,10.0,Calm,Calm,-,N/A,,Clear,0,2013-07-03 05:55:00
1:15 AM,44.6,39.2,81,30.08,10.0,Calm,Calm,-,N/A,,Clear,0,2013-07-03 06:15:00
1:35 AM,44.6,39.2,81,30.08,10.0,NNW,3.5,-,N/A,,Clear,330,2013-07-03 06:35:00
1:55 AM,46.4,41.0,81,30.08,10.0,Calm,Calm,-,N/A,,Clear,0,2013-07-03 06:55:00
2:15 AM,44.6,39.2,81,30.08,10.0,Calm,Calm,-,N/A,,Clear,0,2013-07-03 07:15:00
2:35 AM,46.4,41.0,81,30.08,10.0,Calm,Calm,-,N/A,,Clear,0,2013-07-03 07:35:00
2:55 AM,44.6,37.4,76,30.07,10.0,Calm,Calm,-,N/A,,Clear,0,2013-07-03 07:55:00
3:15 AM,44.6,39.2,81,30.08,10.0,Calm,Calm,-,N/A,,Clear,0,2013-07-03 08:15:00
3:35 AM,42.8,39.2,87,30.07,10.0,Calm,Calm,-,N/A,,Clear,0,2013-07-03 08:35:00
3:55 AM,44.6,37.4,76,30.07,10.0,Calm,Calm,-,N/A,,Clear,0,2013-07-03 08:55:00
4:15 AM,42.8,37.4,81,30.07,10.0,Calm,Calm,-,N/A,,Clear,0,2013-07-03 09:15:00
4:35 AM,42.8,39.2,87,30.07,10.0,Calm,Calm,-,N/A,,Clear,0,2013-07-03 09:35:00
4:55 AM,42.8,37.4,81,30.07,10.0,Calm,Calm,-,N/A,,Clear,0,2013-07-03 09:55:00
5:15 AM,42.8,37.4,81,30.07,10.0,Calm,Calm,-,N/A,,Clear,0,2013-07-03 10:15:00
5:35 AM,42.8,37.4,81,30.08,10.0,Calm,Calm,-,N/A,,Clear,0,2013-07-03 10:35:00
5:55 AM,44.6,39.2,81,30.08,10.0,Calm,Calm,-,N/A,,Clear,0,2013-07-03 10:55:00
6:15 AM,44.6,39.2,81,30.08,10.0,Calm,Calm,-,N/A,,Clear,0,2013-07-03 11:15:00
6:35 AM,46.4,42.8,87,30.08,10.0,Calm,Calm,-,N/A,,Clear,0,2013-07-03 11:35:00
6:55 AM,51.8,46.4,82,30.08,10.0,Calm,Calm,-,N/A,,Clear,0,2013-07-03 11:55:00
7:15 AM,55.4,46.4,72,30.08,10.0,Calm,Calm,-,N/A,,Clear,0,2013-07-03 12:15:00
7:35 AM,57.2,48.2,72,30.09,10.0,Calm,Calm,-,N/A,,Clear,0,2013-07-03 12:35:00
7:55 AM,59.0,48.2,67,30.08,10.0,Calm,Calm,-,N/A,,Clear,0,2013-07-03 12:55:00
8:15 AM,62.6,48.2,59,30.08,10.0,WSW,4.6,-,N/A,,Clear,240,2013-07-03 13:15:00
8:35 AM,62.6,48.2,59,30.08,10.0,SW,3.5,-,N/A,,Clear,220,2013-07-03 13:35:00
8:55 AM,64.4,48.2,56,30.08,10.0,SSW,5.8,-,N/A,,Clear,210,2013-07-03 13:55:00
9:15 AM,64.4,50.0,59,30.08,10.0,SW,3.5,-,N/A,,Clear,220,2013-07-03 14:15:00
9:35 AM,66.2,51.8,60,30.07,10.0,WSW,3.5,-,N/A,,Clear,250,2013-07-03 14:35:00
9:55 AM,68.0,51.8,56,30.07,10.0,Calm,Calm,-,N/A,,Clear,0,2013-07-03 14:55:00
10:15 AM,69.8,51.8,53,30.06,10.0,Calm,Calm,-,N/A,,Clear,0,2013-07-03 15:15:00
10:35 AM,71.6,53.6,53,30.06,10.0,Calm,Calm,-,N/A,,Clear,0,2013-07-03 15:35:00
10:55 AM,73.4,53.6,50,30.05,10.0,Calm,Calm,-,N/A,,Clear,0,2013-07-03 15:55:00
11:15 AM,73.4,53.6,50,30.05,10.0,WNW,4.6,-,N/A,,Clear,290,2013-07-03 16:15:00
11:35 AM,73.4,51.8,47,30.05,10.0,Calm,Calm,-,N/A,,Clear,0,2013-07-03 16:35:00
11:55 AM,75.2,51.8,44,30.05,10.0,WSW,5.8,-,N/A,,Clear,250,2013-07-03 16:55:00
12:15 PM,75.2,51.8,44,30.04,10.0,SSW,3.5,-,N/A,,Clear,210,2013-07-03 17:15:00
12:35 PM,75.2,51.8,44,30.04,10.0,Calm,Calm,-,N/A,,Clear,0,2013-07-03 17:35:00
12:55 PM,75.2,51.8,44,30.04,10.0,WNW,3.5,-,N/A,,Clear,290,2013-07-03 17:55:00
1:15 PM,77.0,48.2,36,30.03,10.0,North,3.5,-,N/A,,Clear,350,2013-07-03 18:15:00
1:35 PM,77.0,48.2,36,30.02,10.0,North,5.8,-,N/A,,Clear,350,2013-07-03 18:35:00
1:55 PM,77.0,53.6,44,30.02,10.0,North,8.1,-,N/A,,Clear,350,2013-07-03 18:55:00
2:15 PM,77.0,53.6,44,30.02,10.0,NNE,5.8,-,N/A,,Clear,20,2013-07-03 19:15:00
2:35 PM,75.2,51.8,44,30.02,10.0,NNE,6.9,-,N/A,,Clear,30,2013-07-03 19:35:00
2:55 PM,77.0,51.8,41,30.01,10.0,NNE,5.8,-,N/A,,Clear,30,2013-07-03 19:55:00
3:15 PM,77.0,51.8,41,30.01,10.0,NNW,8.1,-,N/A,,Clear,330,2013-07-03 20:15:00
3:35 PM,77.0,51.8,41,30.00,10.0,NW,5.8,-,N/A,,Clear,320,2013-07-03 20:35:00
3:55 PM,77.0,51.8,41,29.99,10.0,North,3.5,-,N/A,,Clear,350,2013-07-03 20:55:00
4:15 PM,77.0,50.0,39,29.99,10.0,North,6.9,-,N/A,,Clear,360,2013-07-03 21:15:00
4:35 PM,78.8,51.8,39,29.98,10.0,NNW,3.5,-,N/A,,Clear,340,2013-07-03 21:35:00
4:55 PM,78.8,51.8,39,29.98,10.0,NNE,5.8,-,N/A,,Clear,30,2013-07-03 21:55:00
5:15 PM,78.8,51.8,39,29.97,10.0,North,4.6,-,N/A,,Clear,350,2013-07-03 22:15:00
5:35 PM,78.8,51.8,39,29.97,10.0,North,8.1,-,N/A,,Clear,350,2013-07-03 22:35:00
5:55 PM,77.0,51.8,41,29.97,10.0,NNW,8.1,-,N/A,,Clear,340,2013-07-03 22:55:00
6:15 PM,75.2,51.8,44,29.97,10.0,North,6.9,-,N/A,,Clear,350,2013-07-03 23:15:00
6:35 PM,75.2,51.8,44,29.97,10.0,North,5.8,-,N/A,,Clear,10,2013-07-03 23:35:00
6:55 PM,75.2,51.8,44,29.97,10.0,North,3.5,-,N/A,,Clear,350,2013-07-03 23:55:00
7:15 PM,75.2,53.6,47,29.97,10.0,NE,3.5,-,N/A,,Clear,40,2013-07-04 00:15:00
7:35 PM,73.4,51.8,47,29.97,10.0,NE,4.6,-,N/A,,Clear,50,2013-07-04 00:35:00
7:55 PM,73.4,48.2,41,29.97,10.0,NNE,3.5,-,N/A,,Clear,30,2013-07-04 00:55:00
8:15 PM,71.6,48.2,43,29.97,10.0,NE,3.5,-,N/A,,Clear,40,2013-07-04 01:15:00
8:35 PM,68.0,51.8,56,29.97,10.0,Calm,Calm,-,N/A,,Clear,0,2013-07-04 01:35:00
8:55 PM,64.4,51.8,64,29.97,10.0,Calm,Calm,-,N/A,,Clear,0,2013-07-04 01:55:00
9:15 PM,62.6,53.6,72,29.97,10.0,Calm,Calm,-,N/A,,Clear,0,2013-07-04 02:15:00
9:35 PM,60.8,51.8,72,29.97,10.0,Calm,Calm,-,N/A,,Clear,0,2013-07-04 02:35:00
9:55 PM,59.0,51.8,77,29.98,10.0,Calm,Calm,-,N/A,,Clear,0,2013-07-04 02:55:00
10:15 PM,57.2,50.0,77,29.98,10.0,Calm,Calm,-,N/A,,Clear,0,2013-07-04 03:15:00
10:35 PM,60.8,51.8,72,29.98,10.0,Calm,Calm,-,N/A,,Clear,0,2013-07-04 03:35:00
10:55 PM,64.4,51.8,64,29.98,10.0,South,5.8,-,N/A,,Clear,190,2013-07-04 03:55:00
11:15 PM,64.4,51.8,64,29.98,10.0,South,5.8,-,N/A,,Clear,180,2013-07-04 04:15:00
11:35 PM,66.2,53.6,64,29.98,10.0,South,10.4,-,N/A,,Clear,190,2013-07-04 04:35:00
11:55 PM,66.2,53.6,64,29.98,10.0,SSW,11.5,18.4,N/A,,Clear,200,2013-07-04 04:55:00